Tracking 28126 objects as of 2-Oct-2023
HD Live streaming from Space Station
objects crossing your sky now

CZ-4C DEB

Track CZ-4C DEB now!
10-day predictions


NORAD ID: 42672
Int'l Code: 2015-069E
Perigee: 579.3 km
Apogee: 774.3 km
Inclination: 98.2 °
Period: 98.1 minutes
Semi major axis: 7047 km
RCS: Unknown
Launch date: November 26, 2015
Source: People's Republic of China (PRC)
Launch site: Taiyaun Space Center, China (TSC)

Note: This is SATELLITE DEBRIS
Your satellite tracking list
Your tracking list is empty




NASA's NSSDC Master Catalog

Two Line Element Set (TLE):
1 42672U 15069E   23274.28343264  .00014378  00000-0  22109-2 0  9991
2 42672  98.1916 215.2319 0138322 278.7501  79.8059 14.67319872412226
Source of the keplerian elements: AFSPC